Tracking 28126 objects as of 1-Oct-2023
HD Live streaming from Space Station
objects crossing your sky now

STARLINK-5583

Track STARLINK-5583 now!
10-day predictions
STARLINK-5583 is classified as:


NORAD ID: 55768
Int'l Code: 2023-028AD
Perigee: 577.2 km
Apogee: 581.2 km
Inclination: 70.0 °
Period: 96.1 minutes
Semi major axis: 6950 km
RCS: Unknown
Launch date: March 3, 2023
Source: United States (US)
Launch site: AIR FORCE WESTERN TEST RANGE (AFWTR)
Your satellite tracking list
Your tracking list is empty




NASA's NSSDC Master Catalog

Two Line Element Set (TLE):
1 55768U 23028AD  23273.46128365  .00001649  00000-0  14595-3 0  9995
2 55768  69.9995 311.6409 0002844 266.9104  93.1729 14.98336084 33025
Source of the keplerian elements: AFSPC